Regional Weather Roundup
Issued by NWS Charleston, SC

Current Version | Previous Version | Graphics & Text | Print | Product List | Glossary On
Versions: 1 2 3 4 5 6 7 8 9 10 11 12 13 14 15 16 17 18 19 20 21 22 23 24 25 26 27 28 29 30 31 32 33 34 35 36 37 38 39 40 41 42 43 44 45 46 47 48 49 50
000
ASUS42 KCHS 280327
RWRCHS

REGIONAL WEATHER ROUNDUP
NATIONAL WEATHER SERVICE CHARLESTON SC
1100 PM EDT TUE JUN 27 2017

NOTE: "FAIR" INDICATES FEW OR NO CLOUDS BELOW 12,000 FEET WITH NO
SIGNIFICANT WEATHER AND/OR OBSTRUCTIONS TO VISIBILITY.

NOT ALL STATIONS ARE QUALITY CONTROLLED. USE DATA WITH CAUTION...
ESPECIALLY DEWPOINT OBSERVATIONS.

SCZ027-030-031-034>040-042>050-280400-
...SOUTHEAST SOUTH CAROLINA...

CITY           SKY/WX    TMP DP  RH WIND       PRES   REMARKS
N CHARLESTON   PTCLDY    73  65  75 CALM      30.06R
WATERFRONT PRK   N/A     80  69  69 VRB2      30.03R
JOHNS ISLAND     N/A     73  70  88 CALM      30.06R
PINOPOLIS        N/A     75  70  83 CALM      29.98R
MONCKS CORNER  FAIR      70  68  94 CALM      30.07R
SUMMERVILLE    FAIR      72  68  88 CALM      30.08R
BEAUFORT MCAS  CLOUDY    73  71  93 CALM      30.05R
BEAUFORT ARPT  FAIR      75  72  88 CALM      30.05R
HILTON HEAD IS CLOUDY    77  73  88 CALM      30.06R
WALTERBORO     CLOUDY    72  68  88 CALM      30.08R
ALLENDALE      FAIR      73  70  88 CALM      30.06R

...SOUTHERN MIDLANDS AND PEE DEE...

CITY           SKY/WX    TMP DP  RH WIND       PRES   REMARKS
GEORGETOWN     FAIR      68  68 100 CALM      30.08R
KINGSTREE      FAIR      70  68  94 CALM      30.07R
ORANGEBURG     CLOUDY    73  68  84 CALM      30.07R
BARNWELL       FAIR      77  70  78 S5        30.07R
AIKEN          FAIR      70  61  73 NE3       30.11R
MANNING        FAIR      70  70 100 CALM      30.07R
COLUMBIA       PTCLDY    80  58  46 N6        30.06R
SUMTER         CLOUDY    71  65  82 N10       30.05R
FLORENCE       CLOUDY    74  60  61 N8        30.07R
MYRTLE BEACH   CLOUDY    73  68  84 CALM      30.07R
N MYRTLE BEACH CLOUDY    72  69  90 CALM      30.05R

$$

GAZ063-065-086>088-099>101-113>116-118-119-134>141-150-280400-
...SOUTHEAST GEORGIA...

CITY           SKY/WX    TMP DP  RH WIND       PRES   REMARKS
SAVANNAH ARPT  CLOUDY    73  68  84 CALM      30.06R
HUNTER AAF     CLOUDY    74  69  83 CALM      30.02R
FORT STEWART   CLOUDY    72  69  90 CALM      30.03R
STATESBORO     MOCLDY    74  74 100 CALM      30.06S
SYLVANIA       MOCLDY    74  73  96 CALM      30.07S
CLAXTON        FAIR      71  70  96 CALM      30.07R

...CSRA...CENTRAL AND FAR SOUTHEAST GEORGIA...

CITY           SKY/WX    TMP DP  RH WIND       PRES   REMARKS
THOMSON        CLEAR     69  64  83 CALM      30.13R
AUGUSTA-BUSH   MOCLDY    73  67  81 CALM      30.05R
AUGUSTA-DANIEL CLEAR     79  58  48 SE3       30.07R
SWAINSBORO     FAIR      73  72  94 S3        30.08R
VIDALIA        CLOUDY    73  70  88 CALM      30.08R
EASTMAN        FAIR      73  71  94 CALM      30.10R
HAZLEHURST     FAIR      75  71  88 CALM      30.06R
ALMA           PTCLDY    70  68  93 CALM      30.06R
WAYCROSS       MOCLDY    74  74 100 CALM      30.06R FOG
JESUP          FAIR      72  68  88 CALM      30.06S
BAXLEY         FAIR      72  72 100 CALM      30.06R
BRUNSWICK      CLOUDY    72  72 100 CALM      30.05S
SAINT SIMONS   CLOUDY    78  73  84 SE6       30.03R

$$

SCZ027-028-034-036>038-045-046-048>050-GAZ119-141-280400-
...LAKE AND SUPPLEMENTAL COASTAL OBSERVATIONS...

STATION/POSITION TIME  TEMP    WIND        PRES    WAVE   SWELL
                       AIR SEA DIR/SP/G            HT/PER HT/PER/DIR
                 (UTC) (F)     (DEG/KT/KT) (MB)    (FT/S) (FT/S/D)
WINYAH BAY       0245   73     310/  2     1017.0S
LAKE MURRAY      0250   77      40/  2/  4 1017.3R
ACE BASIN NERRS  0230   73        CALM     1018.0R
FORT PULASKI     0300   78 83     CALM     1017.7
SAPELO ISLAND    0300   74        CALM     1017.0

$$

ANZ835-935-AMZ111-154-330-350-352-354-370-450-454-472-280400-
...C-MAN AND BUOY OBSERVATIONS...

STATION/POSITION TIME  TEMP    WIND        PRES    WAVE   SWELL
                       AIR SEA DIR/SP/G            HT/PER HT/PER/DIR
                 (UTC) (F)     (DEG/KT/KT) (MB)    (FT/S) (FT/S/D)
BUOY 41004       0310   80 81   90/  4/  6 1017.0
BUOY 41008       0250   79 82  150/  6/  8 1016.7R   2/ 8   2/120/ 8
FOLLY BEACH CMAN 0300   80     180/  3/  4 1018.3R
CAPERS NEARSHORE 0308   85 83  180/  4/  8 1017.5R
FRIPP NEARSHORE  0308   80 83  150/  6/  8 1016.9R


STATION/POSITION TIME  TEMP    WIND        PRES    WAVE   SWELL
                       AIR SEA DIR/SP/G            HT/PER HT/PER/DIR
                 (UTC) (F)     (DEG/KT/KT) (MB)    (FT/S) (FT/S/D)
5E ST. MARYS GA  0300      80                N/A     2/ 4
FRYING PAN BUOY  0310   79 80  210/  2/  2 1017.0
BUOY 41025       0250   80 82  270/ 10/ 12 1016.5R   2/ 6   2/130/ 6
CAPE LOOKOUT NC  0300   78     260/  6/  7 1016.9R
BUOY 41002       0250   78 80   CALM  /  2 1016.9R   3/ 6   3/230/ 6
BUOY 41010       0310   82 83  180/  4/  6 1016.6
ST AUGUSTINE FL  0300   77 79  120/  6/  6 1016.7F


$$




USA.gov is the U.S. government's official web portal to all federal, state and local government web resources and services.